Location: Unspecified
(54.1780°N, 0.0000°E)
Time: 18:08:53
(UTC+00:00)

Altair - Pass Details

Date: 20 June 2019
Orbit: 1501 x 1683 km, 47.2° (Epoch: 16 August)

Event Time Altitude Azimuth Distance (km) Brightness Sun altitude
Rises 23:23:30 0° 263° (W) 4,785 10.1 -11.9°
Reaches altitude 10° 23:26:36 10° 260° (W) 3,825 9.6 -12.0°
Maximum altitude 23:36:07 59° 185° (S) 1,868 7.6 -12.2°
Drops below altitude 10° 23:45:55 10° 110° (ESE) 3,935 9.4 -12.3°
Sets 23:49:09 0° 107° (ESE) 4,931 10.0 -12.3°
